Regional Weather Roundup
Issued by NWS Portland, ME

Home | Current Version | Previous Version | Text Only | Print | Product List | Glossary On
Versions: 1 2 3 4 5 6 7 8 9 10 11 12 13 14 15 16 17 18 19 20 21 22 23 24 25 26 27 28 29 30 31 32 33 34 35 36 37 38 39 40 41 42 43 44 45 46 47 48 49 50
000
ASUS41 KGYX 240110
RWRGYX
WEATHER ROUNDUP FOR MAINE AND NEW HAMPSHIRE
NATIONAL WEATHER SERVICE GRAY ME
900 PM EDT MON OCT 23 2017

MEZ002-005-006-010-012-015-018-020-021-024-026-027-029-240200-
MAINE

CITY           SKY/WX    TMP DP  RH WIND       PRES   REMARKS
PORTLAND       FOG       56  55  97 SE8       30.21F VSB 3/4
SANFORD        FOG       56  55  97 CALM      30.21S VSB 1/4
BAR HARBOR     CLOUDY    55  54  96 SE3       30.24F
WISCASSET      CLOUDY    56  55  97 E3        30.23S FOG
ROCKLAND       LGT RAIN  55  55 100 E5        30.23F VSB 1/2
FRYEBURG       CLOUDY    59  56  89 CALM      30.20S
LEWISTONAUBURN CLOUDY    55  55 100 S5        30.21S FOG
AUGUSTA        CLOUDY    55  54  96 S5        30.21F
WATERVILLE     CLOUDY    56  54  93 S3        30.18S
BANGOR         CLOUDY    56  54  93 S10       30.22F
GREENVILLE       N/A     50  49  96 SE10      30.16F
MILLINOCKET    CLEAR     52  51  97 VRB5      30.20F
HOULTON        CLEAR     55  46  71 S7        30.17S
PRESQUE ISLE   CLEAR     52  46  80 S6        30.15F
FRENCHVILLE    CLEAR     51  45  79 SE9       30.12S
CARIBOU        CLEAR     54  46  74 S5        30.13F
$$

NHZ002-005-008-009-011-012-014-240200-
NEW HAMPSHIRE

CITY           SKY/WX    TMP DP  RH WIND       PRES   REMARKS
PORTSMOUTH     FOG       56  56  99 CALM      30.19R VSB 1/2
ROCHESTER      FOG       56  55  97 CALM      30.19F VSB 1/2
NASHUA         CLOUDY    61  59  94 SE6       30.18S
MANCHESTER     CLOUDY    59  58  96 CALM      30.17S
CONCORD        CLOUDY    57  55  93 SE5       30.18S
LACONIA        MOCLDY    55  53  93 CALM      30.19S
PLYMOUTH       CLOUDY    58  54  85 CALM      30.17F
BERLIN         PTCLDY    51  49  92 CALM      30.17R
WHITEFIELD     CLOUDY    49  46  90 CALM      30.15F
JAFFREY        PTCLDY    62  60  93 S7        30.18S
KEENE          PTCLDY    54  53  97 CALM      30.16R FOG
LEBANON        MOCLDY    62  57  83 S5        30.13F
MT WASHINGTON  FOG       43  43 100 S44G53      N/A  VSB 1/16
$$

VTZ005-007-008-240200-
VERMONT

CITY           SKY/WX    TMP DP  RH WIND       PRES   REMARKS
ST JOHNSBURY     N/A     58  53  84 MISG      30.12F
BURLINGTON     MOCLDY    68  53  58 S9        30.02F
$$

MAZ007-012-024-CTZ003-RIZ002-NYZ038-NYZ072-240200-
SOUTHERN NEW ENGLAND AND NY

CITY           SKY/WX    TMP DP  RH WIND       PRES   REMARKS
BOSTON         CLOUDY    59  58  96 CALM      30.18F
WORCESTER      CLOUDY    62  58  86 SE8       30.18S
NANTUCKET      CLOUDY    63  63 100 SE15      30.21S
PROVIDENCE     CLOUDY    66  65  96 S7        30.18S
HARTFORD       MOCLDY    64  61  90 SE5       30.13F
ALBANY         CLOUDY    68  57  68 SE8G17    30.05F
NEW YORK CITY  MOCLDY    71  63  75 SE15G22   30.05F
$$

ANZ081-ANZ082-ANZ150-NHZ014-MEZ023>029-240200-
COASTAL MARINE OBSERVATIONS

STATION/POSITION TIME  TEMP    WIND        PRES    WAVE
                       AIR SEA DIR/SP/G            HT/PER
                 (UTC) (F)     (DEG/KT/KT) (MB)    (FT/S)
MOUNT DESERT ROC 0100   57     150/  9/ 10 1024.4F
MATINICUS ROCK   0000   54      90/  8/  8 1023.7F
ISLE OF SHOALS   0000   57      70/  7/  8 1022.1F
JEFFREYS LEDGE   0006      58                N/A     1/ 9
GEORGES BANK BUO 0050   62 60              1026.2R   3/ 5
$$

.............KEY..............
   WCI - WIND CHILL
   TC  - TEMPERATURE IN CELSIUS
   VSB - VISIBILITY IN MILES
   HX  - HEAT INDEX
   FAIR- INDICATES FEW OR NO CLOUDS BELOW 12,000 FT, WITH NO
         SIGNIFICANT WEATHER AND/OR OBSTRUCTIONS TO VISIBILITY.






USA.gov is the U.S. government's official web portal to all federal, state and local government web resources and services.